SPACEWAY 1

导读 | 豆包AI

SPACEWAY 1(“太空之路”1号)是美国“太空之路”卫星系列的首颗Ka频段宽带通信卫星,由休斯网络公司与休斯空间通信公司联合建造,DirecTV运营。它于2005年4月26日由“天顶”3SL火箭发射,定点西经102.8°地球静止轨道,发射重量6080kg,设计寿命12年,配置72路Ka频段转发器,主要为美国提供高清电视业务,2020年2月正式退役。

Basic Information
目录编号:
28644
目录名称:
SPACEWAY 1
国际标识:
2005-015A
轨道中心:
EARTH
卫星名称:
SPACEWAY 1
卫星全名:
--
卫星状态:
在轨 (已飞行7675 天)
发射日期:
2005-04-26 UTC
国别 :
美国 (US)
星等 :
--
Orbit Information
数据来源 国际轨道数据 AOE轨道数据
星历时间 2026-04-30T23:10:53+0800
16小时前
查看轨道信息
2026-05-01T05:00:00+0800
10小时前
查看轨道信息
半长轴 42671.169km 42671.14km
偏心率 0.0003191 0.0003214
轨道倾角 6.581° 6.581°
近地点辐角 145.687° 146.417°
升交点赤经 71.293° 71.291°
平近点角 245.639° 330.876°
近地点 36279.415km 36279.288km
远地点 36306.649km 36306.718km
周期 1462.048分钟 1462.046分钟
每日圈数 0.98492 0.984921
Detailed Information
使用方式:
暂无
2D Orbit Map
3D Orbit Map
Orbit Altitude Analysis Chart
Orbit Inclination Analysis Chart
Orbit Comprehensive Analysis Chart
View Comprehensive Chart